FENGYUN 1C DEB, 31185

Orbit data source: Space-Track

FENGYUN 1C DEB, 31185 is space debris in SSO originally from a launch on Mon, 10 May 1999 UTC launched from the Taiyaun Space Center, China (TSC). Fengyun 1C debris stems from the Chinese weather satellite Fengyun-1C, which was intentionally destroyed by a Chinese anti-satellite missile in 2007. This event dramatically increased the amount of space debris, with thousands of trackable fragments posing hazards to satellites and human spaceflight. The Fengyun 1C debris cloud has become a focal point in discussions about space sustainability and the need for international regulations to prevent the creation of new debris.

Loading next visibility...
Identifier
31185, 1999-025BJP
Orbit
SSO
Country
Flag of CNCN / PRC
Related business
Manufacturer
Unknown
Mission
Spacecraft
Bus & Motor
Unknown
Mass
Unknown
Launch date (UTC)
1999-05-10 (27 years ago)
Launch vehicle
Unknown
Launch site
Taiyaun Space Center, China (TSC)
Object type
Payload
Rocket body
Debris
Shape & HBR
Unknown shape, 0.1 m
Radar Cross Section
Small (<0.1 m²)

Expand to show TLE details & history
Last TLE update: 14 hours ago

TLE from 14 hours ago
0 FENGYUN 1C DEB
1 31185U 99025BJP 26236.20103984  .00000481  00000-0  33363-3 0  9993
2 31185  98.8458 230.3927 0041382 116.0896 244.4538 14.03151251659055
Epoch: 2026-08-24T04:49Z
TLE epoch observation values (Epoch: 2026-08-24T04:49:29.842Z)
Latitude
-0.00004°
Longitude
-174.46778°
Altitude
898.852 km
Speed
7.396 km/s
True Right ascension
15h 21m 34s
True Declination
0° 00' 00"
Sunlit
Object was in daylight at epoch
Visualization orbit readout
Latitude
Unknown
Longitude
Unknown
Altitude
Unknown
Speed
Unknown
Apparent Right ascension
Unknown
Apparent Declination
Unknown
Sunlit
N/A
Visualization observer readout
Local Sidereal Time
09:58:40
Azimuth
Unknown
Elevation
Unknown
Doppler factor
Unknown
Orbital elements
Apogee altitude
910.127 km
Perigee altitude
850.055 km
Semi-major axis
7,258.228 km
Eccentricity
0.00414
Inclination
98.8458°
RAAN
230.3927°
Arg. of periapsis
116.0896°
True anomaly
244.02691°
Mean anomaly
244.4538°
Eccentric anomaly
244.24026°
Mean motion
3.50992 °/min
Orbital period
102.57 mins
BSTAR
0.00033363
Loading maneuver chart data...
Computing Atmospheric mass density...

Documentation

Showing up to 5 results
|